Home   Weather   Busan   Past weeks

Flag for South Korea Past Weather in Busan, South Korea — Yesterday and Last 2 Weeks

Now
75 °F

Passing clouds.


Feels Like: 75 °F
Forecast: 72 / 84 °F
Wind: 5 mph from Northeast

Location: Pusan / Kimhae International Airport

Current Time: Sep 27, 2016 at 2:33:15 AM

Latest Report: Sep 27, 2016 at 2:00 AM


Visibility: 4 mi

Pressure: 30.01 "Hg

Humidity: 89%

Dew Point: 72 °F

Location of BusanLocation

Past Weather in Busan — Graph

°F

Busan Temperature Yesterday

Maximum temperature yesterday: 82 °F (at 4:00 PM)
Minimum temperature yesterday: 70 °F (at 2:00 AM)
Average temperature yesterday: 75 °F

High & Low Weather Summary for the Past Weeks

 TemperatureHumidityPressure
High84 °F (Sep 25, 3:00 PM)100% (Sep 13, 7:00 AM)30.12 "Hg (Sep 13, 7:00 AM)
Low59 °F (Sep 21, 5:00 AM)33% (Sep 20, 3:00 AM)29.74 "Hg (Sep 17, 3:00 PM)
Average72 °F76%29.98 "Hg
* Reported Sep 12 1:00 AM — Sep 27 1:00 AM, Busan, Weather by CustomWeather, © 2016

Note: Actual official high and low records may vary slightly from our data, if they occured in-between our weather recording intervals... More about our weather records

Advertising

Busan Weather History for the Previous 24 Hours

Scroll right to see more
 ConditionsComfort  
Time TempWeatherWind HumidityBarometerVisibility
1:00 AM
Tue, Sep 27
75 °FPassing clouds.7 mph89%30.01 "Hg5 mi
12:00 AM75 °FPassing clouds.3 mph89%30.04 "Hg5 mi
11:00 PM
Mon, Sep 26
75 °FPassing clouds.6 mph89%30.04 "Hg6 mi
10:00 PM75 °FPassing clouds.7 mph89%30.01 "Hg6 mi
9:00 PM77 °FPassing clouds.5 mph83%30.01 "Hg6 mi
8:00 PM77 °FPartly cloudy.7 mph83%30.01 "Hg6 mi
7:01 PM77 °FLight rain. Mostly cloudy.6 mph83%29.98 "Hg6 mi
7:00 PM77 °FPartly cloudy.6 mph83%29.98 "HgN/A
6:00 PM79 °FBroken clouds.6 mph74%29.98 "HgN/A
5:00 PM81 °FPartly sunny.7 mph74%29.98 "HgN/A
4:00 PM82 °FBroken clouds.5 mph70%29.95 "HgN/A
3:00 PM81 °FBroken clouds.6 mph74%29.98 "HgN/A
2:00 PM79 °FLight rain. Broken clouds.7 mph79%29.98 "HgN/A
1:00 PM81 °FBroken clouds.6 mph74%30.01 "HgN/A
12:00 PM81 °FBroken clouds.7 mph70%30.01 "HgN/A
11:00 AM79 °FBroken clouds.3 mph70%30.04 "Hg6 mi
10:00 AM75 °FPartly sunny.2 mph74%30.04 "Hg6 mi
9:00 AM73 °FBroken clouds.2 mph74%30.04 "HgN/A
8:00 AM72 °FSunny.2 mph73%30.01 "Hg10 mi
7:00 AM70 °FBroken clouds.2 mph83%30.01 "HgN/A
6:00 AM70 °FPassing clouds.1 mph78%30.01 "HgN/A
5:00 AM70 °FClear.2 mph83%30.01 "Hg10 mi
4:00 AM70 °FClear.6 mph83%29.98 "Hg10 mi
3:00 AM70 °FPartly cloudy.6 mph83%30.01 "HgN/A
2:00 AM70 °FPassing clouds.3 mph83%30.01 "HgN/A
Weather by CustomWeather, © 2016

See weather overviewHow to use our weather pages